Location: Cudham
(51.3000°N, 0.0667°E)
Time: 17:51:47
(UTC+00:00)

USA 229 DEB - Pass Details

Date: 19 April 2026
Orbit: 844 x 1364 km, 63.4° (Epoch: 10 January)

Event Time Altitude Azimuth Distance (km) Brightness Sun altitude
Rises 02:08:54 0° 312° (NW) 4,029 6.8 -21.5°
Reaches altitude 10° 02:11:53 10° 302° (WNW) 3,141 6.1 -21.2°
Maximum altitude 02:18:12 29° 246° (WSW) 2,155 4.8 -20.7°
Enters shadow 02:18:33 29° 242° (WSW) 2,165 4.8 -20.6°
